2007,4,9,21,630
2007,4,9,22,630
2007,4,9,23,650
2007,4,10,0,690
2007,4,10,1,750
2007,4,10,2,800
2007,4,10,3,870
2007,4,10,4,930
2007,4,10,5,970
2007,4,10,6,1000
2007,4,10,7,980
2007,4,10,8,930
2007,4,10,9,900
2007,4,10,10,840
2007,4,10,11,770
2007,4,10,12,700
2007,4,10,13,650
2007,4,10,14,610
2007,4,10,15,580
2007,4,10,16,580
2007,4,10,17,590
2007,4,10,18,600
2007,4,10,19,610
2007,4,10,20,640
2007,4,10,21,650
2007,4,10,22,670
2007,4,10,23,700
2007,4,11,0,750
2007,4,11,1,770
2007,4,11,2,800
2007,4,11,3,830
2007,4,11,4,850
2007,4,11,5,890
2007,4,11,6,920
2007,4,11,7,930
2007,4,11,8,950
2007,4,11,9,950
2007,4,11,10,910
2007,4,11,11,880
2007,4,11,12,830
2007,4,11,13,780
2007,4,11,14,710
2007,4,11,15,660
2007,4,11,16,600
2007,4,11,17,580
2007,4,11,18,570
2007,4,11,19,570
2007,4,11,20,600
2007,4,11,21,640
2007,4,11,22,690
2007,4,11,23,750
2007,4,12,0,810
2007,4,12,1,820
2007,4,12,2,840
2007,4,12,3,810
2007,4,12,4,810
2007,4,12,5,810
2007,4,12,6,820
2007,4,12,7,840
2007,4,12,8,850
2007,4,12,9,920
2007,4,12,10,950
2007,4,12,11,970
2007,4,12,12,970
2007,4,12,13,930
2007,4,12,14,840
2007,4,12,15,730
2007,4,12,16,640
2007,4,12,17,570
2007,4,12,18,520
2007,4,12,19,490
2007,4,12,20,530
2007,4,12,21,590
2007,4,12,22,680
2007,4,12,23,790
2007,4,13,0,860
2007,4,13,1,900
2007,4,13,2,920
2007,4,13,3,870
2007,4,13,4,800
2007,4,13,5,760
2007,4,13,6,720
2007,4,13,7,710
2007,4,13,8,770
2007,4,13,9,850
2007,4,13,10,930
2007,4,13,11,1030
2007,4,13,12,1080
2007,4,13,13,1070
2007,4,13,14,1010
2007,4,13,15,900
2007,4,13,16,750
2007,4,13,17,600
2007,4,13,18,490
2007,4,13,19,470
2007,4,13,20,490
2007,4,13,21,570
2007,4,13,22,680
2007,4,13,23,830
2007,4,14,0,930
2007,4,14,1,1000
2007,4,14,2,1020
2007,4,14,3,960
2007,4,14,4,840
2007,4,14,5,720
2007,4,14,6,620
2007,4,14,7,570
2007,4,14,8,590
2007,4,14,9,690
2007,4,14,10,820
2007,4,14,11,980
2007,4,14,12,1100
2007,4,14,13,1160
2007,4,14,14,1150
2007,4,14,15,1050
2007,4,14,16,900
2007,4,14,17,710
2007,4,14,18,550
2007,4,14,19,440
2007,4,14,20,420
2007,4,14,21,490
2007,4,14,22,630
2007,4,14,23,840
2007,4,15,0,1010
2007,4,15,1,1130
2007,4,15,2,1160
2007,4,15,3,1090
2007,4,15,4,950
2007,4,15,5,780
2007,4,15,6,600
2007,4,15,7,470
2007,4,15,8,430
2007,4,15,9,500
2007,4,15,10,660
2007,4,15,11,850
2007,4,15,12,1050
2007,4,15,13,1200
2007,4,15,14,1250
2007,4,15,15,1180
2007,4,15,16,1050
2007,4,15,17,860
2007,4,15,18,640
2007,4,15,19,480
2007,4,15,20,420
2007,4,15,21,470
2007,4,15,22,600
2007,4,15,23,820
2007,4,16,0,1030
2007,4,16,1,1200
2007,4,16,2,1270
2007,4,16,3,1220
2007,4,16,4,1080
2007,4,16,5,880
2007,4,16,6,650
2007,4,16,7,460
2007,4,16,8,350
2007,4,16,9,350
2007,4,16,10,480
2007,4,16,11,670
2007,4,16,12,880
2007,4,16,13,1070
2007,4,16,14,1200
2007,4,16,15,1220
2007,4,16,16,1140
2007,4,16,17,970
2007,4,16,18,760
2007,4,16,19,570
2007,4,16,20,450
2007,4,16,21,460
2007,4,16,22,570
2007,4,16,23,750
2007,4,17,0,970
2007,4,17,1,1190
2007,4,17,2,1330
2007,4,17,3,1350
2007,4,17,4,1240
2007,4,17,5,1060
2007,4,17,6,820
2007,4,17,7,580
2007,4,17,8,380
2007,4,17,9,290
2007,4,17,10,330
2007,4,17,11,470
2007,4,17,12,680
2007,4,17,13,910
2007,4,17,14,1110
2007,4,17,15,1210
2007,4,17,16,1180
2007,4,17,17,1080
2007,4,17,18,920
2007,4,17,19,720
2007,4,17,20,570
2007,4,17,21,510
2007,4,17,22,550
2007,4,17,23,690
2007,4,18,0,910
2007,4,18,1,1140
2007,4,18,2,1340
2007,4,18,3,1410
2007,4,18,4,1380
2007,4,18,5,1210
2007,4,18,6,970
2007,4,18,7,720
2007,4,18,8,470
2007,4,18,9,310
2007,4,18,10,270
2007,4,18,11,340
2007,4,18,12,490
2007,4,18,13,700
2007,4,18,14,900
2007,4,18,15,1060
2007,4,18,16,1120
2007,4,18,17,1080
2007,4,18,18,950
2007,4,18,19,810
2007,4,18,20,670
2007,4,18,21,580
2007,4,18,22,570
2007,4,18,23,670
2007,4,19,0,840
2007,4,19,1,1030
2007,4,19,2,1240
2007,4,19,3,1370
2007,4,19,4,1400
2007,4,19,5,1320
2007,4,19,6,1150
2007,4,19,7,900
2007,4,19,8,650
2007,4,19,9,440
2007,4,19,10,330
2007,4,19,11,330
2007,4,19,12,400
2007,4,19,13,540
2007,4,19,14,720
2007,4,19,15,890
2007,4,19,16,1000
2007,4,19,17,1030
2007,4,19,18,970
2007,4,19,19,880
2007,4,19,20,750
2007,4,19,21,660
2007,4,19,22,630
2007,4,19,23,680
2007,4,20,0,790
2007,4,20,1,950
2007,4,20,2,1130
2007,4,20,3,1270
2007,4,20,4,1340
2007,4,20,5,1320
2007,4,20,6,1220
2007,4,20,7,1030
2007,4,20,8,840
2007,4,20,9,650
2007,4,20,10,490
2007,4,20,11,400
2007,4,20,12,400
2007,4,20,13,460
2007,4,20,14,590
2007,4,20,15,720
2007,4,20,16,820
2007,4,20,17,890
2007,4,20,18,900
2007,4,20,19,850
2007,4,20,20,780
2007,4,20,21,710
2007,4,20,22,680
2007,4,20,23,680
2007,4,21,0,750
2007,4,21,1,860
2007,4,21,2,990
2007,4,21,3,1130
2007,4,21,4,1240
2007,4,21,5,1270
2007,4,21,6,1230
2007,4,21,7,1120
2007,4,21,8,980
2007,4,21,9,810
2007,4,21,10,650
2007,4,21,11,530
2007,4,21,12,480
2007,4,21,13,500
2007,4,21,14,540
2007,4,21,15,630
2007,4,21,16,710
2007,4,21,17,770
2007,4,21,18,810
2007,4,21,19,810
2007,4,21,20,790
2007,4,21,21,750
2007,4,21,22,720
2007,4,21,23,720
2007,4,22,0,770
2007,4,22,1,860
2007,4,22,2,950
2007,4,22,3,1030
2007,4,22,4,1120
2007,4,22,5,1170
2007,4,22,6,1170
2007,4,22,7,1130
2007,4,22,8,1040
2007,4,22,9,930
2007,4,22,10,810
2007,4,22,11,710
2007,4,22,12,650
2007,4,22,13,610
2007,4,22,14,600
2007,4,22,15,610
2007,4,22,16,640
2007,4,22,17,680
2007,4,22,18,720
2007,4,22,19,750
2007,4,22,20,770
2007,4,22,21,770
2007,4,22,22,750
2007,4,22,23,770
2007,4,23,0,810
2007,4,23,1,860
2007,4,23,2,920
2007,4,23,3,970
2007,4,23,4,1010
2007,4,23,5,1040
2007,4,23,6,1060
2007,4,23,7,1040
2007,4,23,8,1010
2007,4,23,9,960
2007,4,23,10,890
2007,4,23,11,820
2007,4,23,12,760
2007,4,23,13,720
2007,4,23,14,680
2007,4,23,15,650
2007,4,23,16,630
2007,4,23,17,630
2007,4,23,18,650
2007,4,23,19,680
2007,4,23,20,710
2007,4,23,21,750
2007,4,23,22,770
2007,4,23,23,800
2007,4,24,0,840
2007,4,24,1,880
2007,4,24,2,910
2007,4,24,3,930
2007,4,24,4,960
2007,4,24,5,970
2007,4,24,6,980
2007,4,24,7,980
2007,4,24,8,990
2007,4,24,9,990
2007,4,24,10,980
2007,4,24,11,930
2007,4,24,12,890
2007,4,24,13,820
2007,4,24,14,770
2007,4,24,15,730
2007,4,24,16,670
2007,4,24,17,630
2007,4,24,18,630
2007,4,24,19,640
2007,4,24,20,690
2007,4,24,21,740
2007,4,24,22,800
2007,4,24,23,850
2007,4,25,0,900
2007,4,25,1,920
2007,4,25,2,930
2007,4,25,3,930
2007,4,25,4,930
2007,4,25,5,920
2007,4,25,6,900
2007,4,25,7,910
2007,4,25,8,910
2007,4,25,9,930
2007,4,25,10,950
2007,4,25,11,990
2007,4,25,12,990
2007,4,25,13,960
2007,4,25,14,900
2007,4,25,15,810
2007,4,25,16,750
2007,4,25,17,674
2007,4,25,18,630
2007,4,25,19,610
2007,4,25,20,650
2007,4,25,21,690
2007,4,25,22,760
2007,4,25,23,860
2007,4,26,0,930
2007,4,26,1,980
2007,4,26,2,980
2007,4,26,3,940
2007,4,26,4,890
2007,4,26,5,840
2007,4,26,6,800
2007,4,26,7,780
2007,4,26,8,780
2007,4,26,9,830
2007,4,26,10,890
2007,4,26,11,950
2007,4,26,12,990
2007,4,26,13,1010
2007,4,26,14,980
2007,4,26,15,910
2007,4,26,16,810
2007,4,26,17,720
2007,4,26,18,640
2007,4,26,19,600
2007,4,26,20,610
2007,4,26,21,660
2007,4,26,22,760
2007,4,26,23,860
2007,4,27,0,960
2007,4,27,1,1010
2007,4,27,2,1020
2007,4,27,3,990
2007,4,27,4,910
2007,4,27,5,820
2007,4,27,6,740
2007,4,27,7,680
2007,4,27,8,690
2007,4,27,9,720
2007,4,27,10,800
2007,4,27,11,900
2007,4,27,12,970
2007,4,27,13,1030
2007,4,27,14,1030
2007,4,27,15,980
2007,4,27,16,880
2007,4,27,17,760
2007,4,27,18,660
2007,4,27,19,600
2007,4,27,20,590
2007,4,27,21,640
2007,4,27,22,730
2007,4,27,23,850
2007,4,28,0,960
2007,4,28,1,1050
2007,4,28,2,1080
2007,4,28,3,1050
2007,4,28,4,950
2007,4,28,5,820
2007,4,28,6,700
2007,4,28,7,630
2007,4,28,8,600
2007,4,28,9,630
2007,4,28,10,710
2007,4,28,11,810
2007,4,28,12,940
2007,4,28,13,1010
2007,4,28,14,1030
2007,4,28,15,1000
2007,4,28,16,930
2007,4,28,17,810
2007,4,28,18,700
2007,4,28,19,650
2007,4,28,20,610
2007,4,28,21,640
2007,4,28,22,730
2007,4,28,23,860
2007,4,29,0,990
2007,4,29,1,1100
2007,4,29,2,1130
2007,4,29,3,1080
2007,4,29,4,1000
2007,4,29,5,860
2007,4,29,6,730
2007,4,29,7,610
2007,4,29,8,550
2007,4,29,9,550
2007,4,29,10,610
2007,4,29,11,740
2007,4,29,12,890
2007,4,29,13,1000
2007,4,29,14,1050
2007,4,29,15,1030
2007,4,29,16,960
2007,4,29,17,860
2007,4,29,18,750
2007,4,29,19,660
2007,4,29,20,600
2007,4,29,21,620
2007,4,29,22,710
2007,4,29,23,850
2007,4,30,0,990
2007,4,30,1,1100
2007,4,30,2,1150
2007,4,30,3,1130
2007,4,30,4,1060
2007,4,30,5,910
2007,4,30,6,750
2007,4,30,7,610
2007,4,30,8,520
2007,4,30,9,510
2007,4,30,10,570
2007,4,30,11,690
2007,4,30,12,830
2007,4,30,13,960
2007,4,30,14,1050
2007,4,30,15,1070
2007,4,30,16,1010
2007,4,30,17,890
2007,4,30,18,780
2007,4,30,19,680
2007,4,30,20,610
2007,4,30,21,610
2007,4,30,22,670
2007,4,30,23,810
2007,5,1,0,970
2007,5,1,1,1100
2007,5,1,2,1190
2007,5,1,3,1190
2007,5,1,4,1100
2007,5,1,5,940
2007,5,1,6,760
2007,5,1,7,600
2007,5,1,8,470
2007,5,1,9,420
2007,5,1,10,450
2007,5,1,11,550
2007,5,1,12,710
2007,5,1,13,870
2007,5,1,14,990
2007,5,1,15,1030
2007,5,1,16,1000
2007,5,1,17,900
2007,5,1,18,790
2007,5,1,19,680
2007,5,1,20,610
2007,5,1,21,600
2007,5,1,22,670
2007,5,1,23,790
2007,5,2,0,940
2007,5,2,1,1090
2007,5,2,2,1190
2007,5,2,3,1200
2007,5,2,4,1140
2007,5,2,5,1000
2007,5,2,6,810
2007,5,2,7,620
2007,5,2,8,480
2007,5,2,9,410
2007,5,2,10,410
2007,5,2,11,480
2007,5,2,12,610
2007,5,2,13,780
2007,5,2,14,900
2007,5,2,15,970
2007,5,2,16,980
2007,5,2,17,910
2007,5,2,18,810
2007,5,2,19,700
2007,5,2,20,610
2007,5,2,21,580
2007,5,2,22,620
2007,5,2,23,700
2007,5,3,0,860
2007,5,3,1,1010
2007,5,3,2,1130
2007,5,3,3,1180
2007,5,3,4,1150
2007,5,3,5,1050
2007,5,3,6,870
2007,5,3,7,660
2007,5,3,8,490
2007,5,3,9,380
2007,5,3,10,340
2007,5,3,11,420
2007,5,3,12,530
2007,5,3,13,660
2007,5,3,14,810
2007,5,3,15,910
2007,5,3,16,940
2007,5,3,17,900
2007,5,3,18,830
2007,5,3,19,720
2007,5,3,20,610
2007,5,3,21,570
2007,5,3,22,600
2007,5,3,23,690
2007,5,4,0,830
2007,5,4,1,970
2007,5,4,2,1110
2007,5,4,3,1200
2007,5,4,4,1190
2007,5,4,5,1100
2007,5,4,6,950
2007,5,4,7,750
2007,5,4,8,560
2007,5,4,9,410
2007,5,4,10,350
2007,5,4,11,370
2007,5,4,12,460
2007,5,4,13,590
2007,5,4,14,720
2007,5,4,15,840
2007,5,4,16,900
2007,5,4,17,880
2007,5,4,18,830
2007,5,4,19,750
2007,5,4,20,650
2007,5,4,21,590
2007,5,4,22,600
2007,5,4,23,670
2007,5,5,0,800
2007,5,5,1,950
2007,5,5,2,1060
2007,5,5,3,1160
2007,5,5,4,1190
2007,5,5,5,1130
2007,5,5,6,1000
2007,5,5,7,820
2007,5,5,8,630
2007,5,5,9,460
2007,5,5,10,370
2007,5,5,11,340
2007,5,5,12,380
2007,5,5,13,480
2007,5,5,14,610
2007,5,5,15,730
2007,5,5,16,800
2007,5,5,17,830
2007,5,5,18,780
2007,5,5,19,720
2007,5,5,20,650
2007,5,5,21,590
2007,5,5,22,570
2007,5,5,23,610
2007,5,6,0,700
2007,5,6,1,830
2007,5,6,2,970
2007,5,6,3,1070
2007,5,6,4,1140
2007,5,6,5,1130
2007,5,6,6,1040
2007,5,6,7,900
2007,5,6,8,710
2007,5,6,9,540
2007,5,6,10,420
2007,5,6,11,370
2007,5,6,12,370
2007,5,6,13,450
2007,5,6,14,550
2007,5,6,15,660
2007,5,6,16,750
2007,5,6,17,800
2007,5,6,18,790
2007,5,6,19,740
2007,5,6,20,680
2007,5,6,21,620
2007,5,6,22,590
2007,5,6,23,620
2007,5,7,0,670
2007,5,7,1,760
2007,5,7,2,890
2007,5,7,3,1000
2007,5,7,4,1080
2007,5,7,5,1110
2007,5,7,6,1050
2007,5,7,7,940
2007,5,7,8,800
2007,5,7,9,670
2007,5,7,10,550
2007,5,7,11,440
2007,5,7,12,400
2007,5,7,13,420
2007,5,7,14,480
2007,5,7,15,540
2007,5,7,16,630
2007,5,7,17,700
2007,5,7,18,720
2007,5,7,19,710
2007,5,7,20,670
2007,5,7,21,630
2007,5,7,22,610
2007,5,7,23,600
2007,5,8,0,630
2007,5,8,1,700
2007,5,8,2,800
2007,5,8,3,890
2007,5,8,4,960
2007,5,8,5,1010
2007,5,8,6,1010
2007,5,8,7,970
2007,5,8,8,890
2007,5,8,9,780
2007,5,8,10,660
2007,5,8,11,560
2007,5,8,12,490
2007,5,8,13,460
2007,5,8,14,460
2007,5,8,15,510
2007,5,8,16,550
2007,5,8,17,600
2007,5,8,18,640
2007,5,8,19,670
2007,5,8,20,690
2007,5,8,21,680
2007,5,8,22,660
2007,5,8,23,640
2007,5,9,0,650
2007,5,9,1,690
2007,5,9,2,750
2007,5,9,3,820
2007,5,9,4,860
2007,5,9,5,920
2007,5,9,6,950
2007,5,9,7,950
2007,5,9,8,920
2007,5,9,9,850
2007,5,9,10,770
2007,5,9,11,680
2007,5,9,12,600
2007,5,9,13,530
2007,5,9,14,490
2007,5,9,15,500
2007,5,9,16,530
2007,5,9,17,560
2007,5,9,18,590
2007,5,9,19,640
2007,5,9,20,660
2007,5,9,21,680
2007,5,9,22,690
2007,5,9,23,700
2007,5,10,0,700
2007,5,10,1,720
2007,5,10,2,730
2007,5,10,3,730
2007,5,10,4,760
2007,5,10,5,790
2007,5,10,6,840
2007,5,10,7,870
2007,5,10,8,900
2007,5,10,9,870
2007,5,10,10,850
2007,5,10,11,800
2007,5,10,12,740
2007,5,10,13,650
2007,5,10,14,590
2007,5,10,15,540
2007,5,10,16,500
2007,5,10,17,490
2007,5,10,18,540
2007,5,10,19,600
2007,5,10,20,670
2007,5,10,21,740
2007,5,10,22,770
2007,5,10,23,790
2007,5,11,0,780
2007,5,11,1,750
2007,5,11,2,720
2007,5,11,3,690
2007,5,11,4,670
2007,5,11,5,660
2007,5,11,6,680
2007,5,11,7,740
2007,5,11,8,800
2007,5,11,9,850
2007,5,11,10,880
2007,5,11,11,890
2007,5,11,12,850
2007,5,11,13,770
2007,5,11,14,670
2007,5,11,15,580
2007,5,11,16,510
2007,5,11,17,480
2007,5,11,18,490
2007,5,11,19,530
2007,5,11,20,610
2007,5,11,21,710
2007,5,11,22,800
2007,5,11,23,870
2007,5,12,0,890
2007,5,12,1,870
2007,5,12,2,810
2007,5,12,3,730
2007,5,12,4,650
2007,5,12,5,590
2007,5,12,6,580
2007,5,12,7,610
2007,5,12,8,690
2007,5,12,9,790
2007,5,12,10,870
2007,5,12,11,940
2007,5,12,12,950
2007,5,12,13,930
2007,5,12,14,840
2007,5,12,15,730
2007,5,12,16,600
2007,5,12,17,510
2007,5,12,18,480
2007,5,12,19,500
2007,5,12,20,560
2007,5,12,21,680
2007,5,12,22,810
2007,5,12,23,920
2007,5,13,0,990
2007,5,13,1,990
2007,5,13,2,920
2007,5,13,3,800
2007,5,13,4,660
2007,5,13,5,530
2007,5,13,6,440
2007,5,13,7,430
2007,5,13,8,490
2007,5,13,9,600
2007,5,13,10,740
2007,5,13,11,880
2007,5,13,12,960
2007,5,13,13,1000
2007,5,13,14,950
2007,5,13,15,830
2007,5,13,16,680
2007,5,13,17,560
2007,5,13,18,470
2007,5,13,19,470
2007,5,13,20,540
2007,5,13,21,650
2007,5,13,22,800
2007,5,13,23,960
2007,5,14,0,1070
2007,5,14,1,1100
2007,5,14,2,1060
2007,5,14,3,930
2007,5,14,4,760
2007,5,14,5,560
2007,5,14,6,390
2007,5,14,7,290
2007,5,14,8,300
2007,5,14,9,390
2007,5,14,10,540
2007,5,14,11,710
2007,5,14,12,870
2007,5,14,13,960
2007,5,14,14,990
2007,5,14,15,930
2007,5,14,16,810
2007,5,14,17,670
2007,5,14,18,540
2007,5,14,19,470
2007,5,14,20,500
2007,5,14,21,600
2007,5,14,22,750
2007,5,14,23,950
2007,5,15,0,1100
2007,5,15,1,1210
2007,5,15,2,1230
2007,5,15,3,1120
2007,5,15,4,940
2007,5,15,5,700
2007,5,15,6,460
2007,5,15,7,300
2007,5,15,8,220
2007,5,15,9,230
2007,5,15,10,350
2007,5,15,11,530
2007,5,15,12,710
2007,5,15,13,880
2007,5,15,14,980
2007,5,15,15,980
2007,5,15,16,910
2007,5,15,17,760
2007,5,15,18,610
2007,5,15,19,510
2007,5,15,20,490
2007,5,15,21,530
2007,5,15,22,650
2007,5,15,23,840
2007,5,16,0,1030
2007,5,16,1,1180
2007,5,16,2,1250
2007,5,16,3,1220
2007,5,16,4,1080
2007,5,16,5,860
2007,5,16,6,610
2007,5,16,7,350
2007,5,16,8,200
2007,5,16,9,170
2007,5,16,10,220
2007,5,16,11,340
2007,5,16,12,530
2007,5,16,13,740
2007,5,16,14,870
2007,5,16,15,940
2007,5,16,16,940
2007,5,16,17,850
2007,5,16,18,690
2007,5,16,19,570
2007,5,16,20,520
2007,5,16,21,520
2007,5,16,22,590
2007,5,16,23,740
2007,5,17,0,930
2007,5,17,1,1120
2007,5,17,2,1230
2007,5,17,3,1270
2007,5,17,4,1210
2007,5,17,5,1040
2007,5,17,6,820
2007,5,17,7,550
2007,5,17,8,320
2007,5,17,9,180
2007,5,17,10,160
2007,5,17,11,220
2007,5,17,12,360
2007,5,17,13,550
2007,5,17,14,730
2007,5,17,15,860
2007,5,17,16,910
2007,5,17,17,880
2007,5,17,18,780
2007,5,17,19,660
2007,5,17,20,550
2007,5,17,21,490
2007,5,17,22,530
2007,5,17,23,640
2007,5,18,0,800
2007,5,18,1,970
2007,5,18,2,1130
2007,5,18,3,1230
2007,5,18,4,1230
2007,5,18,5,1150
2007,5,18,6,970
2007,5,18,7,740
2007,5,18,8,490
2007,5,18,9,290
2007,5,18,10,190
2007,5,18,11,190
2007,5,18,12,260
2007,5,18,13,400
2007,5,18,14,540
2007,5,18,15,700
2007,5,18,16,810
2007,5,18,17,830
2007,5,18,18,800
2007,5,18,19,730
2007,5,18,20,630
2007,5,18,21,560
2007,5,18,22,560
2007,5,18,23,620
2007,5,19,0,720
2007,5,19,1,870
2007,5,19,2,1010
2007,5,19,3,1140
2007,5,19,4,1200
2007,5,19,5,1180
2007,5,19,6,1080
2007,5,19,7,900
2007,5,19,8,690
2007,5,19,9,480
2007,5,19,10,350
2007,5,19,11,270
2007,5,19,12,260
2007,5,19,13,320
2007,5,19,14,450
2007,5,19,15,590
2007,5,19,16,700
2007,5,19,17,760
2007,5,19,18,790
2007,5,19,19,750
2007,5,19,20,680
2007,5,19,21,610
2007,5,19,22,580
2007,5,19,23,620
2007,5,20,0,690
2007,5,20,1,770
2007,5,20,2,900
2007,5,20,3,1020
2007,5,20,4,1110
2007,5,20,5,1130
2007,5,20,6,1090
2007,5,20,7,990
2007,5,20,8,820
2007,5,20,9,640
2007,5,20,10,500
2007,5,20,11,390
2007,5,20,12,340
2007,5,20,13,320
2007,5,20,14,380
2007,5,20,15,470
2007,5,20,16,570
2007,5,20,17,660
2007,5,20,18,720
2007,5,20,19,740
2007,5,20,20,720
2007,5,20,21,680
2007,5,20,22,630
2007,5,20,23,640
2007,5,21,0,670
2007,5,21,1,720
2007,5,21,2,800
2007,5,21,3,890
2007,5,21,4,970
2007,5,21,5,1030
2007,5,21,6,1040
2007,5,21,7,990
2007,5,21,8,900
2007,5,21,9,780
2007,5,21,10,660
2007,5,21,11,550
2007,5,21,12,460
2007,5,21,13,430
2007,5,21,14,430
2007,5,21,15,460
2007,5,21,16,530
2007,5,21,17,610
2007,5,21,18,670
2007,5,21,19,710
2007,5,21,20,710
2007,5,21,21,700
2007,5,21,22,690
2007,5,21,23,680
2007,5,22,0,700
2007,5,22,1,730
2007,5,22,2,760
2007,5,22,3,810
2007,5,22,4,860
2007,5,22,5,910
2007,5,22,6,940
2007,5,22,7,950
2007,5,22,8,900
2007,5,22,9,840
2007,5,22,10,750
2007,5,22,11,680
2007,5,22,12,600
2007,5,22,13,530
2007,5,22,14,490
2007,5,22,15,490
2007,5,22,16,500
2007,5,22,17,550
2007,5,22,18,620
2007,5,22,19,670
2007,5,22,20,710
2007,5,22,21,730
2007,5,22,22,740
2007,5,22,23,730
2007,5,23,0,730
2007,5,23,1,750
2007,5,23,2,730
2007,5,23,3,750
2007,5,23,4,770
2007,5,23,5,800
2007,5,23,6,830
2007,5,23,7,850
2007,5,23,8,850
2007,5,23,9,840
2007,5,23,10,800
2007,5,23,11,740
2007,5,23,12,690
2007,5,23,13,620
2007,5,23,14,560
2007,5,23,15,530
2007,5,23,16,530
2007,5,23,17,540
2007,5,23,18,590
2007,5,23,19,650
2007,5,23,20,700
2007,5,23,21,740
2007,5,23,22,780
2007,5,23,23,780
2007,5,24,0,780
2007,5,24,1,770
2007,5,24,2,760
2007,5,24,3,740
2007,5,24,4,730
2007,5,24,5,740
2007,5,24,6,740
2007,5,24,7,760
2007,5,24,8,790
2007,5,24,9,830
2007,5,24,10,830
2007,5,24,11,820
2007,5,24,12,790
2007,5,24,13,720
2007,5,24,14,640
2007,5,24,15,600
2007,5,24,16,560
2007,5,24,17,530
2007,5,24,18,550
2007,5,24,19,590
2007,5,24,20,670
2007,5,24,21,740
2007,5,24,22,810
2007,5,24,23,850
2007,5,25,0,860
2007,5,25,1,830
2007,5,25,2,780
2007,5,25,3,730
2007,5,25,4,680
2007,5,25,5,650
2007,5,25,6,640
2007,5,25,7,650
2007,5,25,8,690
2007,5,25,9,740
2007,5,25,10,790
2007,5,25,11,820
2007,5,25,12,820
2007,5,25,13,790
2007,5,25,14,750
2007,5,25,15,690
2007,5,25,16,630
2007,5,25,17,580
2007,5,25,18,570
2007,5,25,19,600
2007,5,25,20,660
2007,5,25,21,730
2007,5,25,22,810
2007,5,25,23,880
2007,5,26,0,910
2007,5,26,1,900
2007,5,26,2,850
2007,5,26,3,790
2007,5,26,4,700
2007,5,26,5,630
2007,5,26,6,580
2007,5,26,7,560
2007,5,26,8,590
2007,5,26,9,640
2007,5,26,10,710
2007,5,26,11,780
2007,5,26,12,820
2007,5,26,13,830
2007,5,26,14,800
2007,5,26,15,750
2007,5,26,16,670
2007,5,26,17,610
2007,5,26,18,570
2007,5,26,19,580
2007,5,26,20,620
2007,5,26,21,690
2007,5,26,22,790
2007,5,26,23,880
2007,5,27,0,950
2007,5,27,1,960
2007,5,27,2,920
2007,5,27,3,830
2007,5,27,4,720
2007,5,27,5,600
2007,5,27,6,520
2007,5,27,7,480
2007,5,27,8,480
2007,5,27,9,540
2007,5,27,10,620
2007,5,27,11,710
2007,5,27,12,780
2007,5,27,13,820
2007,5,27,14,810
2007,5,27,15,770
2007,5,27,16,710
2007,5,27,17,620
2007,5,27,18,560
2007,5,27,19,550
2007,5,27,20,570
2007,5,27,21,630
2007,5,27,22,740
2007,5,27,23,850
2007,5,28,0,950
2007,5,28,1,990
2007,5,28,2,950
2007,5,28,3,900
2007,5,28,4,780
2007,5,28,5,640
2007,5,28,6,510
2007,5,28,7,430
2007,5,28,8,400
2007,5,28,9,440
2007,5,28,10,530
2007,5,28,11,650
2007,5,28,12,760
2007,5,28,13,830
2007,5,28,14,860
2007,5,28,15,840
2007,5,28,16,780
2007,5,28,17,690
2007,5,28,18,620
2007,5,28,19,580
2007,5,28,20,580
2007,5,28,21,640
2007,5,28,22,760
2007,5,28,23,870
2007,5,29,0,1000
2007,5,29,1,1070
2007,5,29,2,1080
2007,5,29,3,1000
2007,5,29,4,890
2007,5,29,5,730
2007,5,29,6,570
2007,5,29,7,440
2007,5,29,8,390
2007,5,29,9,400
2007,5,29,10,460
2007,5,29,11,570
2007,5,29,12,710
2007,5,29,13,820
2007,5,29,14,880
2007,5,29,15,870
2007,5,29,16,820
2007,5,29,17,740
2007,5,29,18,660
2007,5,29,19,600
2007,5,29,20,580
2007,5,29,21,620
2007,5,29,22,710
2007,5,29,23,840
2007,5,30,0,990
2007,5,30,1,1080
2007,5,30,2,1110
2007,5,30,3,1080
2007,5,30,4,960
2007,5,30,5,790
2007,5,30,6,620
2007,5,30,7,460
2007,5,30,8,370
2007,5,30,9,350
2007,5,30,10,390
2007,5,30,11,520
2007,5,30,12,660
2007,5,30,13,780
2007,5,30,14,860
2007,5,30,15,900
2007,5,30,16,870
2007,5,30,17,800
2007,5,30,18,710
2007,5,30,19,620
2007,5,30,20,590
2007,5,30,21,610
2007,5,30,22,700
2007,5,30,23,830
2007,5,31,0,970
2007,5,31,1,1090
2007,5,31,2,1150
2007,5,31,3,1140
2007,5,31,4,1060
2007,5,31,5,920
2007,5,31,6,720
2007,5,31,7,530
2007,5,31,8,380
2007,5,31,9,290
2007,5,31,10,320
2007,5,31,11,420
2007,5,31,12,540
2007,5,31,13,690
2007,5,31,14,800
2007,5,31,15,850
2007,5,31,16,850
2007,5,31,17,800
2007,5,31,18,720
2007,5,31,19,650
2007,5,31,20,600
2007,5,31,21,590
2007,5,31,22,670
2007,5,31,23,780
2007,6,1,0,920
2007,6,1,1,1060
2007,6,1,2,1170
2007,6,1,3,1210
2007,6,1,4,1140
2007,6,1,5,1010
2007,6,1,6,820
2007,6,1,7,630
2007,6,1,8,450
2007,6,1,9,340
2007,6,1,10,310
2007,6,1,11,370
2007,6,1,12,490
2007,6,1,13,630
2007,6,1,14,780
2007,6,1,15,860
2007,6,1,16,890
2007,6,1,17,870
2007,6,1,18,800
2007,6,1,19,710
2007,6,1,20,630
2007,6,1,21,610
2007,6,1,22,640
2007,6,1,23,740
2007,6,2,0,870
2007,6,2,1,1010
2007,6,2,2,1140
2007,6,2,3,1210
2007,6,2,4,1190
2007,6,2,5,1090
2007,6,2,6,930
2007,6,2,7,740
2007,6,2,8,550
2007,6,2,9,410
2007,6,2,10,340
2007,6,2,11,350
2007,6,2,12,430
2007,6,2,13,560
2007,6,2,14,710
2007,6,2,15,820
2007,6,2,16,870
2007,6,2,17,870
2007,6,2,18,830
2007,6,2,19,730
2007,6,2,20,660
2007,6,2,21,620
2007,6,2,22,640
2007,6,2,23,700
2007,6,3,0,820
2007,6,3,1,960
2007,6,3,2,1090
2007,6,3,3,1200
2007,6,3,4,1220
2007,6,3,5,1160
2007,6,3,6,1040
2007,6,3,7,860
2007,6,3,8,680
2007,6,3,9,500
2007,6,3,10,400
2007,6,3,11,360
2007,6,3,12,410
2007,6,3,13,510
2007,6,3,14,630
2007,6,3,15,750
2007,6,3,16,840
2007,6,3,17,860
2007,6,3,18,840
2007,6,3,19,790
2007,6,3,20,720
2007,6,3,21,660
2007,6,3,22,650
2007,6,3,23,680
2007,6,4,0,770
2007,6,4,1,890
2007,6,4,2,1040
2007,6,4,3,1160
2007,6,4,4,1220
2007,6,4,5,1200
2007,6,4,6,1120
2007,6,4,7,990
2007,6,4,8,820
2007,6,4,9,640
2007,6,4,10,510
2007,6,4,11,420
2007,6,4,12,410
2007,6,4,13,470
2007,6,4,14,570
2007,6,4,15,680
2007,6,4,16,770
2007,6,4,17,830
2007,6,4,18,840
2007,6,4,19,830
2007,6,4,20,770
2007,6,4,21,710
2007,6,4,22,680
2007,6,4,23,690
2007,6,5,0,750
2007,6,5,1,840
2007,6,5,2,950
2007,6,5,3,1070
2007,6,5,4,1150
2007,6,5,5,1170
2007,6,5,6,1140
2007,6,5,7,1060
2007,6,5,8,930
2007,6,5,9,760
2007,6,5,10,630
2007,6,5,11,520
2007,6,5,12,470
2007,6,5,13,470
2007,6,5,14,530
2007,6,5,15,620
2007,6,5,16,720
2007,6,5,17,790
2007,6,5,18,830
2007,6,5,19,830
2007,6,5,20,810
2007,6,5,21,770
2007,6,5,22,720
2007,6,5,23,700
2007,6,6,0,730
2007,6,6,1,780
2007,6,6,2,870
2007,6,6,3,970
2007,6,6,4,1070
2007,6,6,5,1130
2007,6,6,6,1130
2007,6,6,7,1090
2007,6,6,8,990
2007,6,6,9,880
2007,6,6,10,750
2007,6,6,11,630
2007,6,6,12,560
2007,6,6,13,530
2007,6,6,14,560
2007,6,6,15,610
2007,6,6,16,690
2007,6,6,17,790
2007,6,6,18,860
2007,6,6,19,880
2007,6,6,20,890
2007,6,6,21,870
2007,6,6,22,820
2007,6,6,23,790
2007,6,7,0,780
2007,6,7,1,790
2007,6,7,2,830
2007,6,7,3,880
2007,6,7,4,980
2007,6,7,5,1040
2007,6,7,6,1090
2007,6,7,7,1100
2007,6,7,8,1040
2007,6,7,9,980
2007,6,7,10,880
2007,6,7,11,760
2007,6,7,12,680
2007,6,7,13,610
2007,6,7,14,600
2007,6,7,15,620
2007,6,7,16,670
2007,6,7,17,750
2007,6,7,18,820
2007,6,7,19,890
2007,6,7,20,920
2007,6,7,21,930
2007,6,7,22,910
2007,6,7,23,850
2007,6,8,0,820
2007,6,8,1,770
2007,6,8,2,750
2007,6,8,3,760
2007,6,8,4,820
2007,6,8,5,890
2007,6,8,6,940
2007,6,8,7,990
2007,6,8,8,1010
2007,6,8,9,1000
2007,6,8,10,960
2007,6,8,11,890
2007,6,8,12,800
2007,6,8,13,710
2007,6,8,14,640
2007,6,8,15,630
2007,6,8,16,650
2007,6,8,17,700
2007,6,8,18,790
2007,6,8,19,870
2007,6,8,20,930
2007,6,8,21,970
2007,6,8,22,980
2007,6,8,23,970
2007,6,9,0,940
2007,6,9,1,890
2007,6,9,2,830
2007,6,9,3,790
2007,6,9,4,770
2007,6,9,5,780
2007,6,9,6,820
2007,6,9,7,880
2007,6,9,8,920
2007,6,9,9,960
2007,6,9,10,970
2007,6,9,11,970
2007,6,9,12,910
2007,6,9,13,850
2007,6,9,14,760
2007,6,9,15,710
2007,6,9,16,690